Flag for India Weather past 2 weeks in Gurgaon, Haryana, India

Now
79 °F

Clear.


Feels Like: 81 °F
Forecast: 68 / 88 °F
Wind: No wind

Location: New Delhi Palam Airport

Current Time: Oct 26, 2014 at 10:19:41 AM

Latest Report: Oct 26, 2014 at 9:30 AM


Visibility: 2 mi

Pressure: 30.07 "Hg

Humidity: 61%

Dew point: 64 °F

Location of GurgaonLocation

Historic Weather in Gurgaon — Graph

°F

Gurgaon temperature yesterday

Maximum temperature yesterday: 90 °F (at 2:00 PM)
Minimum temperature yesterday: 70 °F (at 4:00 AM)
Average temperature yesterday: 79 °F

Past Weeks' High & Low Weather Summary

 TemperatureHumidityPressure
High93 °F (Oct 12, 2:30 PM)94% (Oct 17, 4:30 AM)30.07 "Hg (Oct 17, 4:30 AM)
Low63 °F (Oct 17, 4:30 AM)20% (Oct 12, 4:30 PM)29.77 "Hg (Oct 11, 2:00 PM)
Average78 °F57%29.92 "Hg
* Reported Oct 11 9:00 AM — Oct 26 8:30 AM, Gurgaon, Weather by CustomWeather, © 2014

Note: Actual official high and low records may vary slightly from our data, if they occured in-between our weather recording intervals... More about our weather records

Advertising

Gurgaon weather history for previous 24 hours

 ConditionsComfort  
Time TempWeatherWind HumidityBarometerVisibility
8:30 AM
Oct 26
73 °FRain. Cloudy.No wind74%30.04 "Hg1 mi
8:00 AM72 °FRain. Cloudy.No wind73%30.01 "Hg1 mi
7:30 AM70 °FRain. Cloudy.No wind78%30.01 "Hg1 mi
7:00 AM70 °FRain. Cloudy.3 mph78%29.98 "Hg1 mi
6:30 AM70 °FFog.3 mph78%29.98 "Hg1 mi
6:00 AM70 °FClear.5 mph78%29.98 "Hg1 mi
5:30 AM72 °FClear.5 mph73%29.95 "Hg1 mi
5:00 AM72 °FClear.6 mph73%29.95 "Hg1 mi
4:30 AM72 °FClear.5 mph73%29.95 "Hg1 mi
4:00 AM72 °FRain. Overcast.3 mph73%29.95 "Hg1 mi
3:30 AM72 °FClear.5 mph69%29.95 "Hg1 mi
3:00 AM73 °FClear.5 mph65%29.95 "Hg1 mi
2:30 AM73 °FClear.5 mph65%29.95 "Hg1 mi
2:00 AM73 °FClear.5 mph65%29.95 "Hg1 mi
1:30 AM73 °FClear.5 mph65%29.95 "Hg1 mi
1:00 AM73 °FClear.6 mph65%29.95 "Hg1 mi
12:30 AM73 °FClear.5 mph65%29.98 "Hg1 mi
12:00 AM75 °FClear.3 mph61%29.98 "Hg1 mi
11:30 PM
Oct 25
75 °FClear.3 mph61%29.98 "Hg1 mi
11:00 PM75 °FClear.3 mph61%29.98 "Hg1 mi
10:30 PM77 °FClear.5 mph57%29.95 "Hg1 mi
10:00 PM79 °FClear.5 mph54%29.95 "Hg1 mi
9:30 PM79 °FClear.5 mph54%29.95 "Hg1 mi
9:00 PM79 °FClear.5 mph54%29.95 "Hg1 mi
8:30 PM79 °FClear.5 mph58%29.92 "Hg1 mi
8:00 PM81 °FClear.5 mph58%29.92 "Hg1 mi
7:00 PM82 °FClear.5 mph55%29.89 "Hg1 mi
6:30 PM82 °FClear.5 mph55%29.89 "Hg1 mi
6:00 PM84 °FClear.5 mph51%29.86 "Hg1 mi
5:30 PM86 °FClear.No wind46%29.86 "Hg1 mi
5:00 PM88 °FClear.No wind43%29.86 "Hg1 mi
4:30 PM88 °FClear.No wind43%29.86 "Hg1 mi
4:00 PM88 °FClear.No wind43%29.86 "Hg1 mi
3:30 PM90 °FClear.No wind41%29.86 "Hg1 mi
3:00 PM90 °FClear.3 mph41%29.86 "Hg1 mi
2:30 PM90 °FClear.5 mph41%29.86 "Hg1 mi
2:00 PM90 °FClear.3 mph38%29.89 "Hg1 mi
1:30 PM88 °FClear.3 mph40%29.89 "Hg1 mi
1:00 PM88 °FClear.3 mph43%29.89 "Hg1 mi
12:30 PM86 °FClear.3 mph46%29.92 "Hg1 mi
12:00 PM86 °FClear.5 mph43%29.92 "Hg1 mi
11:30 AM86 °FClear.3 mph43%29.95 "Hg1 mi
11:00 AM84 °FClear.No wind48%29.95 "Hg1 mi
10:30 AM82 °FClear.No wind55%29.95 "Hg1 mi
Weather by CustomWeather, © 2014

See weather overviewHow to use our weather pages